sat.trackr.live / text

‹ back to catalog

STARLINK-35809

NORAD 66373 · 2025-254AB

PAYLOAD ACTIVE UNKNOWN

§ Identity

Operator
Country
US
Launch date
2025-11-06
Launch site
AFWTR
Launch vehicle
Mass (kg)
RCS (m²)

Purposes: comms

External: N2YO · Heavens-Above · Gunter

§ Orbital elements

Epoch: 2026-09-20T16:38:37.717440Z

Period
93.85 min
Inclination
53.1554°
Eccentricity
0.0001305
Mean motion
15.34406493 rev/d
Perigee alt
461.8 km
Apogee alt
463.6 km
Semi-major
6,840.8 km
B*
5.1049e-4
RAAN
42.9467°
Arg perigee
93.4470°
Mean anomaly
266.6682°
Rev number
4,888

§ Raw data

STARLINK-358091 66373U 25254AB  26263.69349210  .00016914  00000+0  51049-3 0  99982 66373  53.1554  42.9467 0001305  93.4470 266.6682 15.34406493 48881

JSON: /api/v1/satellites/66373 · /tle

For live sub-satellite position, see the globe view (requires WebGL).

§ Visibility from observer

Set your observer location to see the next 7 days of passes ≥ 10°. The values pass through the URL so the page stays shareable.

No JS? Fill the form by hand. The geolocation button needs JavaScript.